User: anonymous   Login
Location: Theydon Bois
(51.6750°N, 0.1050°E)
Time: 03:19:15
(UTC+00:00)
Language:

Cosmos 1867 - Orbit

View from above orbital plane
View from above orbital plane
View from above satellite
View from above satellite

Ground track
Ground track

The orbit data is extracted from the following two-line orbital elements,

1 18187U 87060A   18018.88671498 -.00000076  00000-0  91710-5 0  9992
2 18187  65.0117 345.1480 0014911 280.1036  79.8366 14.31091751594861
Epoch (UTC): 18 January 2018 21:16:52
Eccentricity: 0.0014911
inclination: 65.0117°
perigee height: 777 km
apogee height: 799 km
right ascension of ascending node: 345.1480°
argument of perigee: 280.1036°
revolutions per day: 14.31091751
mean anomaly at epoch: 79.8366°
orbit number at epoch: 59486

The dashed part of the orbit path shows where the satellite is in the earth's shadow,  

DLR